Find Starlink 1814

NORAD ID: 46712 Int'l Des: 2020-073 Owner: SPXS Country: US Constellation: starlink decayed
LEOCIRCULAR

Re-entered — Mar 26, 2026

Loading 3D Globe...

About Starlink 1814

Starlink 1814 (NORAD 46712) is a starlink constellation satellite (v1.0) launched Oct 18, 2020 by SPXS of US. It re-entered the atmosphere on Mar 26, 2026. with a mass of 260.00 kg.

About Starlink 1814

Description loading...

Altitude History

Loading altitude history...

Two-Line Element Set

1 46712U 20073AU 26084.92323558 .04964988 12122-4 10448-2 0 9998
2 46712 53.0226 100.1416 0002949 26.6133 333.5060 16.30164514300530
Epoch: Mar 25, 2026 • Age: 2072 hours

Current Status

Position data unavailable
Launch Date Oct 18, 2020
Age 5.6 years
Decay Date Mar 26, 2026
Type internet

Technical Details

Classification Payload
Mass 260.00 kg
Dry Mass 248.00 kg
Total Mass 260.00 kg
Length 0.20 m
Diameter 2.80 m
Span 9.00 m
Shape Box + pan
Manufacturer SPXS
Bus Type Starlink
Phase Status Unknown Transfer Status
Owner/State SPXS/US

Most Searched